Castlegar, British Columbia

2:37 PM PDT on April 27, 2017 (GMT -0700)
Castlegar

Weather History for CYCG - October, 2013

Change the Weather History Date:

Tuesday, October 15, 2013

  Actual Average Record
Temperature  
Mean Temperature 52 °F -  
Max Temperature 62 °F 45 °F 68 °F (2012)
Min Temperature 41 °F 34 °F 28 °F (1999)
Degree Days  
Heating Degree Days 14    
Growing Degree Days 2 (Base 50)    
Moisture  
Dew Point 36 °F    
Average Humidity 69    
Maximum Humidity 100    
Minimum Humidity 30    
Precipitation  
Precipitation 0.00 in 0.09 in - ()
Sea Level Pressure  
Sea Level Pressure 30.36 in    
Wind  
Wind Speed 2 mph ()    
Max Wind Speed 7 mph    
Max Gust Speed -    
Visibility 10.8 miles    
Events Fog    
Averages and records for this station are not official NWS values.
T = Trace of Precipitation, MM = Missing Value Source: Averaged Metar Reports

Daily Weather History Graph

Daily Weather History Graph

Search for Another Location

Airport or City:

Trip Planner

Search our weather history database for the weather conditions in past years. The results will help you decide how hot, cold, wet, or windy it might be!

Date:

Astronomy

Oct. 15, 2013 Rise Set
Actual Time 7:12 AM PDT 5:59 PM PDT
Civil Twilight 6:39 AM PDT 6:31 PM PDT
Nautical Twilight 6:02 AM PDT 7:08 PM PDT
Astronomical Twilight 5:25 AM PDT 7:45 PM PDT
Moon 4:21 PM PDT (10/15) 3:22 AM PDT (10/15)
Length of Visible Light 11h 51m
Length of Day
10h 47m
Waxing Gibbous, 88% of the Moon is Illuminated
Oct 15
Waxing Gibbous
Oct 18
Full
Oct 26
Last Quarter
Nov 3
New
Nov 9
First Quarter

Hourly Weather History & Observations

Time (PDT) Temp. Windchill Dew Point Humidity Pressure Visibility Wind Dir Wind Speed Gust Speed Precip Events Conditions
5:00 AM 54 °F - 51 °F 86% 30.25 in - WNW 4.6 mph - -  
6:00 AM 30.2 °F 26.7 °F - N/A% 30.51 in 0.2 mi North 3.5 mph - N/A Fog Light Freezing Fog
7:00 AM 30.2 °F 26.7 °F - N/A% 30.50 in 0.2 mi ESE 3.5 mph - N/A Fog Light Freezing Fog
8:00 AM 32.0 °F 28.7 °F - N/A% 30.51 in 0.2 mi ESE 3.5 mph - N/A Fog Light Freezing Fog
9:00 AM 32.0 °F 28.7 °F 32.0 °F 100% 30.51 in 0.2 mi SE 3.5 mph - N/A Fog Fog
10:00 AM 33.8 °F - 32.0 °F 93% 30.49 in 3.0 mi Calm Calm - N/A   Scattered Clouds
10:26 AM 35.6 °F - - N/A% 30.48 in 15.0 mi Calm Calm - N/A   Partly Cloudy
11:00 AM 62 °F - 53 °F 65% 30.22 in - NW 6.9 mph - -  
11:00 AM 41.0 °F - 35.6 °F 81% 30.47 in 15.0 mi SW 2.3 mph - N/A   Mostly Cloudy
12:00 PM 44.6 °F - 23.0 °F 43% 30.40 in 15.0 mi Calm Calm - N/A   Mostly Cloudy
1:00 PM 48.2 °F - 17.6 °F 30% 30.36 in 15.0 mi Calm Calm - N/A   Mostly Cloudy
2:00 PM 50.0 °F - 33.8 °F 54% 30.34 in 15.0 mi Calm Calm - N/A   Mostly Cloudy
3:00 PM 51.8 °F - 33.8 °F 50% 30.31 in 15.0 mi NNW 2.3 mph - N/A   Mostly Cloudy
4:00 PM 53.6 °F - 33.8 °F 47% 30.27 in 15.0 mi Calm Calm - N/A   Mostly Cloudy
5:00 PM 50 °F - 49 °F 93% 30.22 in - NNW 4.6 mph - -  
5:00 PM 53.6 °F - 35.6 °F 51% 30.25 in 15.0 mi SSE 2.3 mph - N/A   Mostly Cloudy
6:00 PM 48.2 °F - 37.4 °F 66% 30.25 in 15.0 mi North 5.8 mph - N/A   Mostly Cloudy
7:00 PM 42.8 °F - 37.4 °F 81% 30.26 in 15.0 mi Calm Calm - N/A   Mostly Cloudy
8:00 PM 42.8 °F - 39.2 °F 87% 30.26 in 15.0 mi Calm Calm - N/A   Mostly Cloudy
9:00 PM 42.8 °F - 37.4 °F 81% 30.25 in 15.0 mi Calm Calm - N/A   Mostly Cloudy